Skip Page Navigation
NASA JPL Caltech
NASA Logo - Jet Propulsion Laboratory + View the NASA Portal
+ Center for Near-Earth Object Studies
JPL Home Earth Solar System Stars & Galaxies Technology
JPL Solar System Dynamics
BODIES ORBITS EPHEMERIDES TOOLS PHYSICAL DATA DISCOVERY FAQ SITE MAP
JPL Small-Body Database Browser
Search: [ help ]  
100097 (1993 FK19)
Classification: Main-belt Asteroid          SPK-ID: 2100097
Ephemeris | Orbit Diagram | Orbital Elements | Mission Design | Physical Parameters | Discovery Circumstances | Close-Approach Data ]

[ show orbit diagram ]
Orbital Elements at Epoch 2459000.5 (2020-May-31.0) TDB
Reference: JPL 22 (heliocentric ecliptic J2000)
 Element Value Uncertainty (1-sigma)   Units 
e .04284642066266722 5.1823e-08  
a 2.746160554327701 2.38e-08 au
q 2.628497404009753 1.4234e-07 au
i 6.90319912939462 5.3831e-06 deg
node 53.53975374476733 4.3348e-05 deg
peri 303.6790972719324 7.788e-05 deg
M 184.1347120250879 6.6601e-05 deg
tp 2459812.516661816943
(2022-Aug-21.01666182)
0.0003086 TDB
period 1662.215446949376
4.55
2.1609e-05
5.916e-08
d
yr
n .2165784228877786 2.8155e-09 deg/d
Q 2.863823704645649 2.482e-08 au
  Orbit Determination Parameters
   # obs. used (total)      646  
   data-arc span      9820 days (26.89 yr)  
   first obs. used      1993-03-17  
   last obs. used      2020-02-04  
   planetary ephem.      DE431  
   SB-pert. ephem.      SB431-N16  
   condition code      0  
   norm. resid. RMS      .55568  
   source      ORB  
   producer      Otto Matic  
   solution date      2020-Feb-24 01:00:30  

Additional Information
 Earth MOID = 1.63283 au 
 Jupiter MOID = 2.32079 au 
 T_jup = 3.336 
[ show covariance matrix ]

Ephemeris | Orbit Diagram | Orbital Elements | Mission Design | Physical Parameters | Discovery Circumstances | Close-Approach Data ]

Physical Parameter Table
Parameter Symbol Value Units Sigma Reference Notes
absolute magnitude H 15.2   n/a MPO314090  

100097 (1993 FK19)          Discovered 1993-Mar-17 by UESAC at La Silla
Reference: 20051019/Numbers.arcLast Updated: 2005-10-26

[ show close-approach data ]
Alternate Designations
 1993 FK19 = 2004 TN302 
Ephemeris | Orbit Diagram | Orbital Elements | Mission Design | Physical Parameters | Discovery Circumstances | Close-Approach Data ]
ABOUT SSD CREDITS/AWARDS PRIVACY/COPYRIGHT GLOSSARY LINKS
FirstGov 2020-Oct-21 02:44 UT
(server date/time)  
NASA Home Page
Site Manager:   Ryan S. Park
Webmaster  Alan B. Chamberlin